Location: Azul
(36.7830°S, 59.8500°W)
Time: 18:51:34
(UTC-03:00)

ZACube-1 - Pass Details

Date: 23 October 2021
Orbit: 584 x 664 km, 97.6° (Epoch: 07 December)

Event Time Altitude Azimuth Distance (km) Brightness Sun altitude
Rises 05:01:33 0° 360° (N) 2,895 ? -12.6°
Reaches altitude 10° 05:03:46 10° 354° (N) 2,010 ? -12.2°
Maximum altitude 05:08:01 49° 279° (W) 841 ? -11.5°
Drops below altitude 10° 05:12:26 10° 204° (SSW) 2,084 ? -10.6°
Sets 05:14:46 0° 198° (SSW) 3,014 ? -10.2°
